Flag for Germany Weather past 2 weeks in Trier, Rhineland-Palatinate, Germany

Now
62 °F

Overcast.


Feels Like: 62 °F
Forecast: 52 / 66 °F
Wind: 2 mph from Southwest

Location: Trier-Petrisberg

Current Time: Sep 20, 2014 at 3:56:10 AM

Latest Report: Sep 20, 2014 at 3:00 AM


Visibility: 16 mi

Pressure: 29.96 "Hg

Humidity: 97%

Dew point: 61 °F

Location of TrierLocation

Historic Weather in Trier — Graph

°F

Trier temperature yesterday

Maximum temperature yesterday: 76 °F (at 5:00 PM)
Minimum temperature yesterday: 61 °F (at 7:00 AM)
Average temperature yesterday: 66 °F

Past Weeks' High & Low Weather Summary

 TemperatureHumidityPressure
High80 °F (Sep 18, 2:00 PM)100% (Sep 5, 5:00 AM)30.21 "Hg (Sep 5, 5:00 AM)
Low47 °F (Sep 12, 7:00 AM)49% (Sep 12, 4:00 PM)29.80 "Hg (Sep 18, 4:00 PM)
Average62 °F82%30.01 "Hg
* Reported Sep 5 2:00 AM — Sep 20 2:00 AM, Trier, Weather by CustomWeather, © 2014

Note: Actual official high and low records may vary slightly from our data, if they occured in-between our weather recording intervals... More about our weather records

Advertising

Trier weather history for previous 24 hours

 ConditionsComfort  
Time TempWeatherWind HumidityBarometerVisibility
2:00 AM
Sep 20
62 °FOvercast.2 mph95%29.96 "Hg13 mi
1:00 AM62 °FPassing clouds.2 mph95%29.96 "Hg14 mi
12:00 AM64 °FOvercast.2 mph93%29.95 "Hg19 mi
11:00 PM
Sep 19
64 °FPassing clouds.3 mph92%29.95 "Hg19 mi
10:00 PM66 °FOvercast.3 mph92%29.93 "Hg12 mi
9:00 PM67 °FOvercast.1 mph89%29.91 "Hg16 mi
8:00 PM67 °FOvercast.3 mph84%29.91 "Hg19 mi
7:00 PM71 °FPartly sunny.5 mph78%29.90 "Hg22 mi
6:00 PM74 °FPartly sunny.3 mph68%29.88 "Hg25 mi
5:00 PM76 °FScattered clouds.3 mph69%29.88 "Hg28 mi
4:00 PM75 °FPartly sunny.3 mph65%29.89 "Hg25 mi
3:00 PM73 °FPartly sunny.2 mph71%29.90 "Hg22 mi
2:00 PM68 °FOvercast.3 mph81%29.91 "Hg19 mi
1:00 PM69 °FOvercast.3 mph83%29.91 "Hg16 mi
12:00 PM69 °FPartly sunny.3 mph84%29.90 "Hg12 mi
11:00 AM67 °FScattered clouds.6 mph89%29.91 "Hg7 mi
10:00 AM63 °FFog.2 mph96%29.90 "Hg4 mi
9:00 AM62 °FFog.1 mph99%29.89 "Hg4 mi
8:00 AM62 °FLow clouds.1 mph100%29.90 "Hg4 mi
7:00 AM61 °FLow clouds.2 mph99%29.88 "Hg3 mi
6:00 AM61 °FLow clouds.2 mph99%29.87 "Hg3 mi
5:00 AM61 °FRain. Overcast.1 mph98%29.87 "Hg2 mi
4:00 AM61 °FPassing clouds.No wind97%29.86 "Hg3 mi
3:00 AM64 °FOvercast.1 mph89%29.86 "Hg12 mi
Weather by CustomWeather, © 2014

See weather overviewHow to use our weather pages